KD8OSM Weather Reports


Display with metric or nautical units.
time (UTC)temp
F
wind
direction
speed
MPH
gust
MPH
rain 1hr
in
rain 24hr
in
rain mn
in
humidity
%
barometer
mb
20260509000211 61 263 0.0 2.0 0.00 0.00 0.00 48 1007.0
20260508235240 61 259 0.0 1.0 0.00 0.00 0.00 48 1007.0
20260508234210 62 259 0.0 1.0 0.00 0.00 0.00 47 1007.0
20260508233221 63 210 0.0 2.0 0.00 0.00 0.00 45 1006.9
20260508232233 64 257 0.0 5.0 0.00 0.00 0.00 43 1006.9
20260508231247 65 248 0.0 4.0 0.00 0.00 0.00 37 1006.9
20260508230231 64 297 1.0 3.0 0.00 0.00 0.00 39 1007.0
20260508225220 64 278 0.0 5.0 0.00 0.00 0.00 40 1007.1
20260508224210 64 253 1.0 8.0 0.00 0.00 0.00 40 1007.1
20260508223226 63 311 0.0 6.0 0.00 0.00 0.00 41 1007.1
20260508222237 64 307 1.0 5.0 0.00 0.00 0.00 41 1007.2
20260508221227 65 266 1.0 4.0 0.00 0.00 0.00 40 1007.2
20260508220229 65 271 0.0 2.0 0.00 0.00 0.00 43 1007.1
20260508215223 63 257 0.0 1.0 0.00 0.00 0.00 43 1007.4
20260508214214 64 277 3.0 7.0 0.00 0.00 0.00 40 1007.3
20260508213245 64 248 2.0 3.0 0.00 0.00 0.00 43 1007.4
20260508212215 65 271 0.0 2.0 0.00 0.00 0.00 41 1007.4
20260508211229 66 255 0.0 3.0 0.00 0.00 0.00 41 1007.4
20260508210213 66 224 0.0 4.0 0.00 0.00 0.00 40 1007.6
20260508205224 65 274 1.0 5.0 0.00 0.00 0.00 40 1007.5
20260508204214 67 267 1.0 5.0 0.00 0.00 0.00 38 1007.8
20260508203209 66 253 1.0 10.0 0.00 0.00 0.00 39 1007.7
20260508202220 65 262 1.0 7.0 0.00 0.00 0.00 40 1008.0
20260508201210 65 260 0.0 2.0 0.00 0.00 0.00 38 1008.2
20260508200211 65 295 2.0 5.0 0.00 0.00 0.00 38 1008.5
20260508195228 64 240 1.0 5.0 0.00 0.00 0.00 38 1008.5
20260508194218 65 296 3.0 12.0 0.00 0.00 0.00 38 1008.7
20260508193209 64 212 0.0 2.0 0.00 0.00 0.00 42 1008.8
20260508192223 63 268 0.0 8.0 0.00 0.00 0.00 39 1009.0
20260508191214 63 133 0.0 2.0 0.00 0.00 0.00 43 1009.2
20260508190216 63 247 0.0 5.0 0.00 0.00 0.00 44 1009.3
20260508185245 63 247 0.0 3.0 0.00 0.00 0.00 41 1009.4
20260508184219 62 300 1.0 3.0 0.00 0.00 0.00 43 1009.6
20260508183210 62 255 1.0 11.0 0.00 0.00 0.00 42 1009.7
20260508182221 62 267 1.0 9.0 0.00 0.00 0.00 40 1009.7
20260508181232 61 291 1.0 7.0 0.00 0.00 0.00 40 1009.8
20260508180214 61 314 1.0 7.0 0.00 0.00 0.00 38 1010.1
20260508175223 61 246 2.0 7.0 0.00 0.00 0.00 38 1010.3
20260508174232 61 260 0.0 7.0 0.00 0.00 0.00 44 1010.4
20260508173221 61 305 2.0 8.0 0.00 0.00 0.00 40 1010.6
20260508172217 61 349 2.0 5.0 0.00 0.00 0.00 43 1010.7
20260508171227 60 267 1.0 5.0 0.00 0.00 0.00 45 1010.9
20260508170246 59 82 0.0 4.0 0.00 0.00 0.00 40 1011.0
20260508165216 60 283 4.0 10.0 0.00 0.00 0.00 46 1011.2
20260508164210 59 119 0.0 3.0 0.00 0.00 0.00 45 1011.3
20260508163221 59 257 0.0 4.0 0.00 0.00 0.00 45 1011.4
20260508162232 58 344 2.0 5.0 0.00 0.00 0.00 42 1011.6
20260508161222 59 281 2.0 5.0 0.00 0.00 0.00 45 1011.8
20260508160210 59 262 1.0 6.0 0.00 0.00 0.00 49 1011.8
20260508155242 59 330 2.0 5.0 0.00 0.00 0.00 44 1011.7
20260508154210 59 332 1.0 5.0 0.00 0.00 0.00 44 1011.8
20260508153222 59 284 2.0 5.0 0.00 0.00 0.00 46 1011.8
20260508152217 58 163 0.0 1.0 0.00 0.00 0.00 50 1012.0
20260508151247 56 241 0.0 5.0 0.00 0.00 0.00 51 1012.0
20260508150210 57 285 1.0 4.0 0.00 0.00 0.00 49 1012.1
20260508145222 57 113 1.0 2.0 0.00 0.00 0.00 51 1012.2
20260508144217 57 91 0.0 1.0 0.00 0.00 0.00 52 1012.2
20260508143228 55 133 0.0 2.0 0.00 0.00 0.00 54 1012.3
20260508142220 55 336 0.0 3.0 0.00 0.00 0.00 57 1012.4
20260508141210 54 333 0.0 2.0 0.00 0.00 0.00 58 1012.4
20260508140219 53 269 0.0 2.0 0.00 0.00 0.00 63 1012.5
20260508135249 53 43 0.0 1.0 0.00 0.00 0.00 67 1012.6
20260508134219 52 101 0.0 1.0 0.00 0.00 0.00 67 1012.6
20260508133230 51 86 0.0 1.0 0.00 0.00 0.00 72 1012.7
20260508132240 50 76 1.0 2.0 0.00 0.00 0.00 71 1012.6
20260508131213 49 98 0.0 1.0 0.00 0.00 0.00 73 1012.6
20260508130218 48 251 0.0 1.0 0.00 0.00 0.00 76 1012.7
20260508125209 48 267 0.0 1.0 0.00 0.00 0.00 79 1012.6
20260508124224 47 98 0.0 1.0 0.00 0.00 0.00 78 1012.6
20260508123215 46 96 0.0 1.0 0.00 0.00 0.00 79 1012.5
20260508122226 45 92 0.0 1.0 0.00 0.00 0.00 79 1012.5
20260508121216 44 98 0.0 1.0 0.00 0.00 0.00 82 1012.4
20260508120224 43 98 0.0 1.0 0.00 0.00 0.00 86 1012.4
20260508115216 41 110 0.0 1.0 0.00 0.00 0.00 93 1012.2
20260508114246 39 335 0.0 0.0 0.00 0.00 0.00 94 1012.1
20260508113216 39 336 0.0 0.0 0.00 0.00 0.00 94 1012.0
20260508112212 38 336 327.0 0.0 0.00 0.00 0.00 94 1011.9
20260508111222 0 0.0 0.0 0.00 0.00 0.00 1011.8
20260508110227 0 0.0 0.0 0.00 0.00 0.00 1011.8
20260508105338 0 0.0 0.0 0.00 0.00 0.00 1011.8
20260508104219 0 0.0 0.0 0.00 0.00 0.00 1011.6
20260508103214 0 0.0 0.0 0.00 0.00 0.00 1011.6
20260508102226 0 0.0 0.0 0.00 0.00 0.00 1011.6
20260508101216 0 0.0 0.0 0.00 0.00 0.00 1011.6
20260508100227 0 0.0 0.0 0.00 0.00 0.00 1011.5
20260508095222 0 0.0 0.0 0.00 0.00 0.00 1011.6
20260508094213 0 0.0 0.0 0.00 0.00 0.00 1011.5
20260508093224 37 335 0.0 0.0 0.00 0.00 0.00 91 1011.6
20260508092215 38 336 0.0 0.0 0.00 0.00 0.00 91 1011.7
20260508091209 38 336 0.0 0.0 0.00 0.00 0.00 91 1011.7
20260508090213 38 336 0.0 0.0 0.00 0.00 0.00 91 1011.7
20260508085245 38 336 0.0 0.0 0.00 0.00 0.00 90 1011.7
20260508084234 39 336 0.0 0.0 0.00 0.00 0.00 90 1011.7
20260508083243 40 336 0.0 0.0 0.00 0.00 0.00 90 1011.7
20260508082217 40 336 0.0 0.0 0.00 0.00 0.00 89 1011.8
20260508081226 41 336 0.0 0.0 0.00 0.00 0.00 88 1011.7
20260508080211 41 336 0.0 0.0 0.00 0.00 0.00 88 1011.8
20260508075227 42 336 0.0 0.0 0.00 0.00 0.00 89 1011.7
20260508074218 42 336 0.0 0.0 0.00 0.00 0.00 89 1011.7
20260508073209 42 336 0.0 0.0 0.00 0.00 0.00 90 1012.0
20260508072221 41 336 0.0 0.0 0.00 0.00 0.00 91 1012.0
20260508070229 41 336 0.0 0.0 0.00 0.00 0.00 90 1012.0
20260508065239 41 336 0.0 0.0 0.00 0.00 0.00 90 1012.0
20260508064228 41 336 0.0 0.0 0.00 0.00 0.00 90 1011.9
20260508063220 41 336 0.0 0.0 0.00 0.00 0.00 89 1011.9
20260508062215 41 336 0.0 0.0 0.00 0.00 0.00 89 1012.0
20260508061226 40 336 0.0 0.0 0.00 0.00 0.00 88 1012.0
20260508060210 40 336 0.0 0.0 0.00 0.00 0.00 87 1012.1
20260508055224 41 336 0.0 0.0 0.00 0.00 0.00 87 1012.1
20260508054235 41 336 0.0 0.0 0.00 0.00 0.00 86 1012.1
20260508053224 41 336 0.0 0.0 0.00 0.00 0.00 85 1012.1
20260508052215 42 336 0.0 0.0 0.00 0.00 0.00 82 1012.1
20260508051209 43 336 0.0 0.0 0.00 0.00 0.00 81 1012.3
20260508050214 44 336 0.0 0.0 0.00 0.00 0.00 79 1012.1
20260508045226 45 336 0.0 1.0 0.00 0.00 0.00 77 1012.1
20260508044216 46 336 0.0 0.0 0.00 0.00 0.00 74 1012.3
20260508043211 47 338 0.0 1.0 0.00 0.00 0.00 71 1012.2
20260508042243 49 82 0.0 6.0 0.00 0.00 0.00 66 1012.2
20260508041213 49 311 1.0 3.0 0.00 0.00 0.00 65 1012.4
20260508040217 48 318 0.0 1.0 0.00 0.00 0.00 65 1011.9
20260508035211 48 276 0.0 1.0 0.00 0.00 0.00 64 1011.9
20260508034222 48 276 0.0 0.0 0.00 0.00 0.00 63 1011.8
20260508033233 49 276 0.0 0.0 0.00 0.00 0.00 61 1012.0
20260508032223 50 276 0.0 0.0 0.00 0.00 0.00 61 1011.9
20260508031220 50 275 0.0 1.0 0.00 0.00 0.00 60 1012.2
20260508030223 50 277 0.0 1.0 0.00 0.00 0.00 59 1012.3
20260508025213 50 263 0.0 1.0 0.00 0.00 0.00 59 1012.5
20260508024224 50 276 0.0 1.0 0.00 0.00 0.00 59 1012.4
20260508023220 50 263 1.0 3.0 0.00 0.00 0.00 59 1012.4
20260508022212 49 291 0.0 1.0 0.00 0.00 0.00 58 1012.2
20260508021222 49 305 0.0 0.0 0.00 0.00 0.00 58 1012.3
20260508020209 49 305 0.0 0.0 0.00 0.00 0.00 59 1012.2
20260508015220 50 305 0.0 0.0 0.00 0.00 0.00 56 1012.2
20260508014212 50 305 0.0 1.0 0.00 0.00 0.00 55 1012.1
20260508013222 50 311 0.0 1.0 0.00 0.00 0.00 53 1011.9
20260508012217 51 290 0.0 0.0 0.00 0.00 0.00 52 1011.8
20260508011228 51 290 0.0 1.0 0.00 0.00 0.00 51 1011.7
20260508010213 52 290 0.0 5.0 0.00 0.00 0.00 50 1011.6
20260508005224 52 291 1.0 9.0 0.00 0.00 0.00 49 1011.6
20260508004220 52 281 3.0 11.0 0.00 0.00 0.00 49 1011.7
20260508003210 52 255 2.0 6.0 0.00 0.00 0.00 48 1011.7
20260508002222 52 283 0.0 1.0 0.00 0.00 0.00 48 1011.5
20260508001215 53 293 1.0 4.0 0.00 0.00 0.00 47 1011.3